Regional Weather Roundup
Issued by NWS Sioux Falls, SD

Home | Current Version | Previous Version | Text Only | Print | Product List | Glossary Off
Versions: 1 2 3 4 5 6 7 8 9 10 11 12 13 14 15 16 17 18 19 20 21 22 23 24 25 26 27 28 29 30 31 32 33 34 35 36 37 38 39 40 41 42 43 44 45 46 47 48 49 50

000
ASUS43 KFSD 011910
RWRFSD

WEATHER ROUNDUP FOR SE SOUTH DAKOTA/SW MINNESOTA/NW IOWA
NATIONAL WEATHER SERVICE SIOUX FALLS SD
200 PM CDT WED APR 01 2015

NOTE: "FAIR" INDICATES FEW OR NO CLOUDS BELOW 12,000 FEET WITH NO
SIGNIFICANT WEATHER AND OR OBSTRUCTIONS TO VISIBILITY.


SDZ038>040-050-052>070-012000-
SOUTHEAST SOUTH DAKOTA

CITY           SKY/WX    TMP DP  RH WIND       PRES   REMARKS
BROOKINGS      PTSUNNY   75  45  33 SW26G37   29.49S
CHAMBERLAIN    CLOUDY    62  39  42 NW16      29.56F
HURON          CLOUDY    67  32  27 NW21      29.50R
MADISON        FAIR      77  43  29 SW28G41   29.50S
MITCHELL       CLOUDY    74  30  19 W20G31    29.52R
SIOUX FALLS    PTSUNNY   81  43  26 S28G39    29.52F
WINNER         FAIR      65  38  36 NW24G37   29.60S
YANKTON        PTSUNNY   81  45  28 S21G31    29.53S
$$

MNZ071-072-080-081-089-090-097-098-012000-
SOUTHWEST MINNESOTA

CITY           SKY/WX    TMP DP  RH WIND       PRES   REMARKS
FAIRMONT       PTSUNNY   81  34  18 S35G45    29.58F
JACKSON        SUNNY     81  36  19 S35G41    29.59F
LUVERNE        MOSUNNY   82  41  23 SW28G39   29.55F
MARSHALL       CLOUDY    81  45  28 SW38G49   29.48F
MONTEVIDEO     CLOUDY    75  43  31 W22G38    29.45S
PIPESTONE      PTSUNNY   81  41  24 SW31G41   29.52F
REDWOOD FALLS  CLOUDY    81  43  26 S39G53    29.47F
WINDOM         MOSUNNY   81  39  22 S25G41    29.56F
WORTHINGTON    MOSUNNY   79  43  27 SW26G38   29.58F
$$

IAZ001>003-012>014-020>022-031-032-NEZ013-014-SDZ071-012000-
NORTHWEST IOWA

CITY           SKY/WX    TMP DP  RH WIND       PRES   REMARKS
CHEROKEE       SUNNY     80  43  26 S29G37    29.60F
DENISON        SUNNY     81  43  26 S25G43    29.64F
ESTHERVILLE    SUNNY     79  39  23 S36G48    29.59F
LE MARS        SUNNY     81  45  28 S31G41    29.57F
ORANGE CITY    MOSUNNY   81  37  21 S33G41    29.58F
SHELDON        SUNNY     81  45  28 S35G47    29.56F
SIOUX CITY     MOSUNNY   84  44  24 S32G40    29.60F
SPENCER        SUNNY     82  43  25 S35G41    29.59F
STORM LAKE     SUNNY     81  43  26 S36       29.63F
$$

ABBREVIATIONS USED IN REMARKS
   TC - TEMPERATURE IN CELSIUS
  WCI - WIND CHILL INDEX
   HX - HEAT INDEX
  VSB - VISIBILITY




USA.gov is the U.S. government's official web portal to all federal, state and local government web resources and services.